sat.trackr.live / text

‹ back to catalog

STARLINK-37026

NORAD 68075 · 2026-042G

PAYLOAD ACTIVE UNKNOWN

§ Identity

Operator
Country
US
Launch date
2026-03-04
Launch site
AFETR
Launch vehicle
Mass (kg)
RCS (m²)

Purposes: comms

External: N2YO · Heavens-Above · Gunter

§ Orbital elements

Epoch: 2026-09-19T18:23:45.447936Z

Period
93.85 min
Inclination
53.1608°
Eccentricity
0.0001405
Mean motion
15.34424387 rev/d
Perigee alt
461.7 km
Apogee alt
463.6 km
Semi-major
6,840.8 km
B*
5.4005e-4
RAAN
353.4026°
Arg perigee
63.5517°
Mean anomaly
296.5630°
Rev number
3,207

§ Raw data

STARLINK-370261 68075U 26042G   26262.76649824  .00017928  00000+0  54005-3 0  99972 68075  53.1608 353.4026 0001405  63.5517 296.5630 15.34424387 32075

JSON: /api/v1/satellites/68075 · /tle

For live sub-satellite position, see the globe view (requires WebGL).

§ Visibility from observer

Set your observer location to see the next 7 days of passes ≥ 10°. The values pass through the URL so the page stays shareable.

No JS? Fill the form by hand. The geolocation button needs JavaScript.